Regional Weather Roundup
Issued by NWS

Home | Current Version | Previous Version | Text Only | Print | Product List | Glossary Off
Versions: 1 2 3 4 5 6 7 8 9 10 11 12 13 14 15 16 17 18 19 20 21 22 23 24

000
ASUS45 KCYS 230810
RWRWY

WYOMING REGIONAL WEATHER ROUNDUP
NATIONAL WEATHER SERVICE CHEYENNE WY
200 AM MDT THU OCT 23 2014

NOTE:  "FAIR" INDICATES FEW OR NO CLOUDS BELOW 12,000 FEET
WITH NO SIGNIFICANT WEATHER AND/OR OBSTRUCTIONS TO VISIBILITY.

WYZ001-230900-
YELLOWSTONE NATIONAL PARK

CITY           SKY/WX    TMP DP  RH WIND       PRES   REMARKS
LK YELLOWSTONE   N/A     26  23  88 NW3       30.22S
W YELLOWSTONE  NOT AVBL

$$
WYZ002>013-054>058-071-098>099-230900-
NORTHERN WYOMING

CITY           SKY/WX    TMP DP  RH WIND       PRES   REMARKS
JACKSON        MOCLDY    28  27  93 N3        30.21S
CODY           PTCLDY    54  19  26 SW17G23   30.02F
GREYBULL       PTCLDY    36  22  56 SE8       30.04S WCI  30
WORLAND        FLURRIES  32  21  64 S9        30.04S WCI  24
SHERIDAN       CLEAR     33  22  63 SW3       29.97S
BUFFALO        CLEAR     44  12  27 SW10      30.02F
GILLETTE       PTCLDY    41  22  46 SE6       30.01S
HULETT         FAIR      37  27  65 CALM      30.02
NEWCASTLE      FAIR      34  27  75 CALM      30.06

$$
WYZ014>020-022>026-101>103-230900-
CENTRAL WYOMING

CITY           SKY/WX    TMP DP  RH WIND       PRES   REMARKS
BIG PINEY      MOCLDY    26  19  74 NE3       30.25R
PINEDALE       PTSUNNY   27  21  80 NW8       30.25S WCI  18
DUBOIS         FAIR      36  14  41 N16G22    30.15F WCI  26
LANDER         PTCLDY    39  21  48 CALM      30.09F
RIVERTON       CLEAR     37  19  48 SW9       30.09F WCI  30
CASPER         CLEAR     35  18  49 SW9       30.11S WCI  28
DOUGLAS        CLEAR     30  16  56 NW3       30.11R

$$
WYZ021-027>030-104>119-230900-
SOUTHERN WYOMING

CITY           SKY/WX    TMP DP  RH WIND       PRES   REMARKS
EVANSTON       PTCLDY    39  21  48 SE7       30.23F WCI  34
KEMMERER       MOSUNNY   34  19  55 N6        30.25S WCI  29
FORT BRIDGER   FAIR      40  21  46 W7        30.27S
ROCK SPRINGS   PTCLDY    36  23  59 S8        30.23F WCI  30
DIXON          FAIR      36  32  86 CALM      30.27R
RAWLINS        PTCLDY    43  32  65 W15       30.21R
SARATOGA       FAIR      37  30  75 SE10      30.24S WCI  30
LARAMIE        CLEAR     34  24  67 SW6       30.21R WCI  29
CHEYENNE       CLEAR     40  29  64 W8        30.18R WCI  34
TORRINGTON     PTCLDY    36  24  62 CALM      30.09S
PINE BLUFFS    FAIR      34  32  93 CALM      30.15R

$$



USA.gov is the U.S. government's official web portal to all federal, state and local government web resources and services.